New Roads False River Regiona, LA

10:51 PM CST on November 18, 2019 (GMT -0600)
False River

Weather History for KHZR - August, 2019

Change the Weather History Date:

Sunday, August 11, 2019

  Actual Average (KBTR) Record (KBTR)
Temperature  
Mean Temperature 85 °F -  
Max Temperature 93 °F 90 °F 104 °F (2007)
Min Temperature 77 °F 72 °F 64 °F (1990)
Cooling Degree Days 20    
Growing Degree Days 35 (Base 50)    
Moisture  
Dew Point 77 °F    
Average Humidity 78    
Maximum Humidity 100    
Minimum Humidity 52    
Precipitation  
Precipitation 0.00 in - - ()
Sea Level Pressure  
Sea Level Pressure 29.99 in    
Wind  
Wind Speed 1 mph (WSW)    
Max Wind Speed 8 mph    
Max Gust Speed -    
Visibility 10 miles    
Events      
Averages and records for this station are not official NWS values.
T = Trace of Precipitation, MM = Missing Value Source: NWS Daily Summary

Daily Weather History Graph

Daily Weather History Graph

Search for Another Location

Airport or City:

Astronomy

Aug. 11, 2019 Rise Set
Actual Time 6:29 AM CDT 7:52 PM CDT
Civil Twilight 6:04 AM CDT 8:17 PM CDT
Nautical Twilight 5:33 AM CDT 8:48 PM CDT
Astronomical Twilight 5:01 AM CDT 9:19 PM CDT
Moon 5:22 PM CDT (8/11) 2:58 AM CDT (8/11)
Length of Visible Light 14h 13m
Length of Day
13h 22m
Waxing Gibbous, 87% of the Moon is Illuminated
Aug 11
Waxing Gibbous
Aug 15
Full
Aug 23
Last Quarter
Aug 30
New
Sep 5
First Quarter

Hourly Weather History & Observations

Time (CDT) Temp. Heat Index Dew Point Humidity Pressure Visibility Wind Dir Wind Speed Gust Speed Precip Events Conditions
12:16 AM 80.6 °F 88.1 °F 78.8 °F 94% 29.96 in 10.0 mi Calm Calm - N/A   Clear
12:36 AM 80.6 °F 88.1 °F 78.8 °F 94% 29.96 in 10.0 mi Calm Calm - N/A   Clear
12:56 AM 78.8 °F - 77.0 °F 94% 29.96 in 10.0 mi Calm Calm - N/A   Clear
1:17 AM 78.8 °F - 77.0 °F 94% 29.96 in 10.0 mi Calm Calm - N/A   Clear
1:36 AM 78.8 °F - 77.0 °F 94% 29.97 in 10.0 mi SSW 3.5 mph - N/A   Clear
1:58 AM 78.8 °F - 77.0 °F 94% 29.96 in 10.0 mi SW 3.5 mph - N/A   Clear
2:56 AM 78.8 °F - 77.0 °F 94% 29.97 in 10.0 mi Calm Calm - N/A   Clear
3:16 AM 78.8 °F - 77.0 °F 94% 29.97 in 10.0 mi Calm Calm - N/A   Clear
3:56 AM 78.8 °F - 77.0 °F 94% 29.98 in 10.0 mi Calm Calm - N/A   Clear
4:36 AM 78.8 °F - 77.0 °F 94% 29.99 in 10.0 mi Calm Calm - N/A   Clear
4:56 AM 78.8 °F - 77.0 °F 94% 29.99 in 10.0 mi Calm Calm - N/A   Clear
5:17 AM 78.8 °F - 78.8 °F 100% 29.99 in 10.0 mi Calm Calm - N/A   Clear
5:36 AM 77.0 °F - 77.0 °F 100% 29.99 in 10.0 mi Calm Calm - N/A   Clear
5:56 AM 77.0 °F - 77.0 °F 100% 29.99 in 10.0 mi Calm Calm - N/A   Clear
6:16 AM 77.0 °F - 77.0 °F 100% 30.00 in 10.0 mi Calm Calm - N/A   Clear
6:36 AM 77.0 °F - 77.0 °F 100% 30.01 in 10.0 mi Calm Calm - N/A   Clear
6:57 AM 77.0 °F - 77.0 °F 100% 30.02 in 10.0 mi Calm Calm - N/A   Clear
7:16 AM 78.8 °F - 77.0 °F 94% 30.02 in 10.0 mi Calm Calm - N/A   Clear
7:38 AM 78.8 °F - 78.8 °F 100% 30.03 in 10.0 mi Calm Calm - N/A   Clear
7:56 AM 80.6 °F 88.1 °F 78.8 °F 94% 30.04 in 10.0 mi Calm Calm - N/A   Clear
8:16 AM 80.6 °F 88.1 °F 78.8 °F 94% 30.04 in 10.0 mi Calm Calm - N/A   Clear
8:36 AM 80.6 °F 88.1 °F 78.8 °F 94% 30.05 in 10.0 mi West 3.5 mph - N/A   Scattered Clouds
8:55 AM 80.6 °F 88.1 °F 78.8 °F 94% 30.05 in 10.0 mi Calm Calm - N/A   Scattered Clouds
9:18 AM 82.4 °F 92.4 °F 78.8 °F 89% 30.05 in 10.0 mi Calm Calm - N/A   Mostly Cloudy
9:36 AM 84.2 °F 96.1 °F 78.8 °F 84% 30.05 in 10.0 mi Calm Calm - N/A   Mostly Cloudy
9:56 AM 84.2 °F 96.1 °F 78.8 °F 84% 30.06 in 10.0 mi West 5.8 mph - N/A   Mostly Cloudy
10:16 AM 84.2 °F 96.1 °F 78.8 °F 84% 30.05 in 10.0 mi West 5.8 mph - N/A   Scattered Clouds
10:36 AM 84.2 °F 96.1 °F 78.8 °F 84% 30.05 in 10.0 mi WNW 6.9 mph - N/A   Scattered Clouds
11:16 AM 87.8 °F 97.6 °F 75.2 °F 66% 30.05 in 10.0 mi West 4.6 mph - N/A   Scattered Clouds
11:36 AM 87.8 °F 97.6 °F 75.2 °F 66% 30.05 in 10.0 mi WNW 4.6 mph - N/A   Mostly Cloudy
11:56 AM 89.6 °F 99.8 °F 75.2 °F 62% 30.04 in 10.0 mi Calm Calm - N/A   Scattered Clouds
12:16 PM 89.6 °F 99.8 °F 75.2 °F 62% 30.03 in 10.0 mi West 3.5 mph - N/A   Scattered Clouds
12:36 PM 89.6 °F 99.8 °F 75.2 °F 62% 30.02 in 10.0 mi West 5.8 mph - N/A   Clear
12:56 PM 91.4 °F 102.5 °F 75.2 °F 59% 30.01 in 10.0 mi Calm Calm - N/A   Scattered Clouds
1:16 PM 91.4 °F 102.5 °F 75.2 °F 59% 30.00 in 10.0 mi Calm Calm - N/A   Scattered Clouds
1:36 PM 91.4 °F 102.5 °F 75.2 °F 59% 30.00 in 10.0 mi West 3.5 mph - N/A   Mostly Cloudy
1:56 PM 91.4 °F 100.1 °F 73.4 °F 55% 30.00 in 10.0 mi WSW 8.1 mph - N/A   Scattered Clouds
2:16 PM 91.4 °F 102.5 °F 75.2 °F 59% 29.99 in 10.0 mi WNW 3.5 mph - N/A   Scattered Clouds
2:38 PM 91.4 °F 102.5 °F 75.2 °F 59% 29.99 in 10.0 mi West 4.6 mph - N/A   Scattered Clouds
2:56 PM 93.2 °F 102.4 °F 73.4 °F 52% 29.98 in 10.0 mi WSW 4.6 mph - N/A   Scattered Clouds
3:16 PM 93.2 °F 105.0 °F 75.2 °F 56% 29.98 in 10.0 mi WNW 5.8 mph - N/A   Mostly Cloudy
3:36 PM 93.2 °F 105.0 °F 75.2 °F 56% 29.97 in 10.0 mi NNW 5.8 mph - N/A   Scattered Clouds
3:56 PM 93.2 °F 105.0 °F 75.2 °F 56% 29.96 in 10.0 mi WNW 3.5 mph - N/A   Scattered Clouds
4:17 PM 91.4 °F 100.1 °F 73.4 °F 55% 29.97 in 10.0 mi Calm Calm - N/A   Clear
4:36 PM 91.4 °F 100.1 °F 73.4 °F 55% 29.96 in 10.0 mi Calm Calm - N/A   Clear
4:56 PM 91.4 °F 100.1 °F 73.4 °F 55% 29.96 in 10.0 mi Calm Calm - N/A   Clear
5:16 PM 91.4 °F 100.1 °F 73.4 °F 55% 29.96 in 10.0 mi Calm Calm - N/A   Clear
5:36 PM 91.4 °F 102.5 °F 75.2 °F 59% 29.96 in 10.0 mi Calm Calm - N/A   Clear
5:56 PM 91.4 °F 100.1 °F 73.4 °F 55% 29.96 in 10.0 mi Calm Calm - N/A   Clear
6:16 PM 91.4 °F 100.1 °F 73.4 °F 55% 29.96 in 10.0 mi Calm Calm - N/A   Clear
6:36 PM 89.6 °F 99.8 °F 75.2 °F 62% 29.96 in 10.0 mi Calm Calm - N/A   Clear
6:56 PM 91.4 °F 100.1 °F 73.4 °F 55% 29.96 in 10.0 mi Calm Calm - N/A   Clear
7:36 PM 89.6 °F 99.8 °F 75.2 °F 62% 29.96 in 10.0 mi Calm Calm - N/A   Mostly Cloudy
8:36 PM 86.0 °F 99.3 °F 78.8 °F 79% 29.95 in 10.0 mi Calm Calm - N/A   Clear
8:56 PM 84.2 °F 96.1 °F 78.8 °F 84% 29.95 in 10.0 mi Calm Calm - N/A   Clear
9:16 PM 84.2 °F 96.1 °F 78.8 °F 84% 29.95 in 10.0 mi Calm Calm - N/A   Clear
9:58 PM 84.2 °F 96.1 °F 78.8 °F 84% 29.95 in 10.0 mi SE 5.8 mph - N/A   Clear
10:16 PM 82.4 °F 90.9 °F 77.0 °F 84% 29.95 in 10.0 mi ESE 5.8 mph - N/A   Clear
10:36 PM 82.4 °F 92.4 °F 78.8 °F 89% 29.96 in 10.0 mi ESE 3.5 mph - N/A   Clear
10:56 PM 82.4 °F 92.4 °F 78.8 °F 89% 29.95 in 10.0 mi SSE 4.6 mph - N/A   Clear
11:36 PM 82.4 °F 92.4 °F 78.8 °F 89% 29.96 in 10.0 mi SE 4.6 mph - N/A   Clear
11:58 PM 82.4 °F 92.4 °F 78.8 °F 89% 29.96 in 10.0 mi SSE 5.8 mph - N/A   Clear